Location: *
(46.1200°N, 11.2700°E)
Time: 12:38:48
(UTC+00:00)

USA 234 - Pass Details

Date: 02 March 2021
Orbit: 1102 x 1105 km, 123.0° (Epoch: 16 April)

Event Time Altitude Azimuth Distance (km) Brightness Sun altitude
Exits shadow 20:24:23 48° 6° (N) 1,416 3.8 -34.6°
Maximum altitude 20:25:27 52° 336° (NNW) 1,343 3.8 -34.7°
Drops below altitude 10° 20:31:44 10° 262° (W) 2,960 6.0 -35.7°
Sets 20:34:16 0° 258° (WSW) 3,917 6.7 -36.0°
